Chickasha, OK

6:13 AM CDT on September 29, 2016 (GMT -0500)
Chickasha Municipal

Weather History for KCHK - August, 2014

Change the Weather History Date:

Wednesday, August 20, 2014

  Actual Average Record
Temperature  
Mean Temperature 86 °F -  
Max Temperature 98 °F 93 °F 104 °F (2011)
Min Temperature 73 °F 69 °F 53 °F (2015)
Cooling Degree Days 20    
Growing Degree Days 36 (Base 50)    
Moisture  
Dew Point 65 °F    
Average Humidity 53    
Maximum Humidity 83    
Minimum Humidity 30    
Precipitation  
Precipitation 0.00 in - - ()
Sea Level Pressure  
Sea Level Pressure 29.89 in    
Wind  
Wind Speed 10 mph (South)    
Max Wind Speed 22 mph    
Max Gust Speed 28 mph    
Visibility 10 miles    
Events      
Averages and records for this station are not official NWS values.
T = Trace of Precipitation, MM = Missing Value Source: NWS Daily Summary

Daily Weather History Graph

Daily Weather History Graph

Search for Another Location

Airport or City:

Trip Planner

Search our weather history database for the weather conditions in past years. The results will help you decide how hot, cold, wet, or windy it might be!

Date:

Astronomy

Aug. 20, 2014 Rise Set
Actual Time 6:55 AM CDT 8:14 PM CDT
Civil Twilight 6:29 AM CDT 8:40 PM CDT
Nautical Twilight 5:57 AM CDT 9:12 PM CDT
Astronomical Twilight 5:24 AM CDT 9:45 PM CDT
Moon 2:40 AM CDT (8/20) 4:56 PM CDT (8/20)
Length of Visible Light 14h 11m
Length of Day
13h 18m
Waning Crescent, 20% of the Moon is Illuminated
Aug 20
Waning Crescent
Aug 25
New
Sep 2
First Quarter
Sep 8
Full
Sep 15
Last Quarter

Hourly Weather History & Observations

Time (CDT) Temp. Heat Index Dew Point Humidity Pressure Visibility Wind Dir Wind Speed Gust Speed Precip Events Conditions
12:35 AM 78.8 °F - 64.4 °F 61% 29.89 in 10.0 mi South 9.2 mph - N/A   Scattered Clouds
12:55 AM 78.8 °F - 66.2 °F 65% 29.88 in 10.0 mi South 6.9 mph - N/A   Mostly Cloudy
1:15 AM 78.8 °F - 68.0 °F 69% 29.88 in 10.0 mi South 5.8 mph - N/A   Mostly Cloudy
1:35 AM 77.0 °F - 66.2 °F 69% 29.88 in 10.0 mi South 6.9 mph - N/A   Mostly Cloudy
1:55 AM 77.0 °F - 64.4 °F 65% 29.87 in 10.0 mi South 4.6 mph - N/A   Mostly Cloudy
2:15 AM 77.0 °F - 64.4 °F 65% 29.87 in 10.0 mi South 4.6 mph - N/A   Mostly Cloudy
2:35 AM 77.0 °F - 64.4 °F 65% 29.87 in 10.0 mi SSE 3.5 mph - N/A   Scattered Clouds
2:55 AM 75.2 °F - 66.2 °F 73% 29.86 in 10.0 mi ESE 6.9 mph - N/A   Clear
3:15 AM 75.2 °F - 66.2 °F 73% 29.87 in 10.0 mi SSE 4.6 mph - N/A   Scattered Clouds
3:35 AM 73.4 °F - 64.4 °F 73% 29.87 in 10.0 mi SSE 5.8 mph - N/A   Scattered Clouds
3:55 AM 73.4 °F - 64.4 °F 73% 29.88 in 10.0 mi SE 5.8 mph - N/A   Scattered Clouds
4:15 AM 75.2 °F - 64.4 °F 69% 29.88 in 10.0 mi SSE 5.8 mph - N/A   Clear
4:35 AM 73.4 °F - 64.4 °F 73% 29.88 in 10.0 mi South 4.6 mph - N/A   Clear
4:55 AM 73.4 °F - 64.4 °F 73% 29.88 in 10.0 mi SE 4.6 mph - N/A   Clear
5:15 AM 73.4 °F - 64.4 °F 73% 29.89 in 10.0 mi SE 4.6 mph - N/A   Clear
5:35 AM 73.4 °F - 64.4 °F 73% 29.89 in 10.0 mi SE 5.8 mph - N/A   Scattered Clouds
5:55 AM 73.4 °F - 66.2 °F 78% 29.89 in 10.0 mi SE 4.6 mph - N/A   Mostly Cloudy
6:15 AM 75.2 °F - 66.2 °F 73% 29.89 in 10.0 mi SSE 6.9 mph - N/A   Mostly Cloudy
6:35 AM 73.4 °F - 66.2 °F 78% 29.89 in 10.0 mi SSE 6.9 mph - N/A   Scattered Clouds
6:55 AM 73.4 °F - 66.2 °F 78% 29.90 in 10.0 mi SSE 6.9 mph - N/A   Scattered Clouds
7:15 AM 73.4 °F - 68.0 °F 83% 29.90 in 10.0 mi SE 4.6 mph - N/A   Mostly Cloudy
7:35 AM 73.4 °F - 68.0 °F 83% 29.90 in 10.0 mi SSE 8.1 mph - N/A   Mostly Cloudy
7:55 AM 75.2 °F - 68.0 °F 78% 29.91 in 10.0 mi SSE 5.8 mph - N/A   Mostly Cloudy
8:15 AM 77.0 °F - 68.0 °F 74% 29.92 in 10.0 mi South 6.9 mph - N/A   Mostly Cloudy
8:35 AM 78.8 °F - 68.0 °F 69% 29.92 in 10.0 mi South 10.4 mph - N/A   Overcast
8:55 AM 80.6 °F 83.2 °F 68.0 °F 65% 29.92 in 10.0 mi South 11.5 mph 19.6 mph N/A   Scattered Clouds
9:15 AM 82.4 °F 85.4 °F 68.0 °F 62% 29.92 in 10.0 mi South 16.1 mph - N/A   Clear
9:55 AM 86.0 °F 90.4 °F 69.8 °F 58% 29.93 in 10.0 mi SSW 12.7 mph 19.6 mph N/A   Clear
10:15 AM 87.8 °F 91.4 °F 68.0 °F 52% 29.93 in 10.0 mi SSW 13.8 mph 20.7 mph N/A   Scattered Clouds
10:35 AM 89.6 °F 93.4 °F 68.0 °F 49% 29.93 in 10.0 mi SSW 16.1 mph 23.0 mph N/A   Scattered Clouds
10:55 AM 89.6 °F 91.1 °F 64.4 °F 43% 29.93 in 10.0 mi SSW 16.1 mph 20.7 mph N/A   Clear
11:15 AM 89.6 °F 91.1 °F 64.4 °F 43% 29.93 in 7.0 mi SSW 16.1 mph 23.0 mph N/A   Clear
11:35 AM - - - N/A% - - North - - N/A   Unknown
12:15 PM 91.4 °F 93.2 °F 64.4 °F 41% 29.92 in 7.0 mi South 18.4 mph 25.3 mph N/A   Clear
12:35 PM 93.2 °F 94.9 °F 64.4 °F 38% 29.92 in 10.0 mi South 18.4 mph 24.2 mph N/A   Clear
12:55 PM 95.0 °F 97.0 °F 64.4 °F 36% 29.92 in 7.0 mi SSW 19.6 mph 24.2 mph N/A   Clear
1:15 PM 95.0 °F 97.0 °F 64.4 °F 36% 29.91 in 7.0 mi SSW 13.8 mph 23.0 mph N/A   Clear
1:35 PM 95.0 °F 96.0 °F 62.6 °F 34% 29.91 in 10.0 mi SSW 16.1 mph 25.3 mph N/A   Clear
1:55 PM 96.8 °F 99.0 °F 64.4 °F 34% 29.90 in 7.0 mi SW 12.7 mph 21.9 mph N/A   Scattered Clouds
2:15 PM 96.8 °F 99.0 °F 64.4 °F 34% 29.90 in 7.0 mi South 17.3 mph 23.0 mph N/A   Scattered Clouds
2:35 PM 96.8 °F 99.0 °F 64.4 °F 34% 29.90 in 10.0 mi SSW 17.3 mph 24.2 mph N/A   Scattered Clouds
2:55 PM 96.8 °F 99.0 °F 64.4 °F 34% 29.89 in 10.0 mi South 15.0 mph 21.9 mph N/A   Scattered Clouds
3:15 PM 96.8 °F 99.0 °F 64.4 °F 34% 29.88 in 10.0 mi South 15.0 mph 23.0 mph N/A   Scattered Clouds
3:35 PM 98.6 °F 101.0 °F 64.4 °F 32% 29.87 in 7.0 mi SSE 15.0 mph 21.9 mph N/A   Scattered Clouds
3:55 PM 98.6 °F 101.0 °F 64.4 °F 32% 29.86 in 10.0 mi South 17.3 mph 24.2 mph N/A   Mostly Cloudy
4:15 PM 96.8 °F 99.0 °F 64.4 °F 34% 29.86 in 10.0 mi South 15.0 mph 25.3 mph N/A   Scattered Clouds
4:35 PM 98.6 °F 101.0 °F 64.4 °F 32% 29.86 in 10.0 mi South 15.0 mph 25.3 mph N/A   Scattered Clouds
4:55 PM 96.8 °F 98.0 °F 62.6 °F 32% 29.85 in 10.0 mi South 16.1 mph 20.7 mph N/A   Scattered Clouds
5:15 PM 98.6 °F 100.0 °F 62.6 °F 30% 29.85 in 10.0 mi South 17.3 mph 24.2 mph N/A   Scattered Clouds
5:35 PM 96.8 °F 98.0 °F 62.6 °F 32% 29.85 in 10.0 mi South 18.4 mph 25.3 mph N/A   Scattered Clouds
5:55 PM 96.8 °F 97.1 °F 60.8 °F 30% 29.84 in 10.0 mi SSE 18.4 mph 27.6 mph N/A   Clear
6:15 PM 96.8 °F 97.1 °F 60.8 °F 30% 29.84 in 10.0 mi South 16.1 mph 23.0 mph N/A   Clear
6:35 PM 96.8 °F 98.0 °F 62.6 °F 32% 29.84 in 10.0 mi South 18.4 mph 26.5 mph N/A   Clear
6:55 PM 95.0 °F 96.0 °F 62.6 °F 34% 29.84 in 10.0 mi SSE 17.3 mph 21.9 mph N/A   Clear
7:15 PM 95.0 °F 97.0 °F 64.4 °F 36% 29.84 in 10.0 mi South 21.9 mph 26.5 mph N/A   Clear
7:35 PM 93.2 °F 96.2 °F 66.2 °F 41% 29.84 in 10.0 mi South 20.7 mph 26.5 mph N/A   Clear
7:55 PM 91.4 °F 93.2 °F 64.4 °F 41% 29.85 in 10.0 mi SSE 17.3 mph 26.5 mph N/A   Clear
8:15 PM 89.6 °F 91.1 °F 64.4 °F 43% 29.86 in 10.0 mi SSE 15.0 mph 21.9 mph N/A   Clear
8:35 PM 89.6 °F 92.2 °F 66.2 °F 46% 29.87 in 10.0 mi SSE 15.0 mph 20.7 mph N/A   Clear
8:55 PM 89.6 °F 93.4 °F 68.0 °F 49% 29.87 in 10.0 mi SSE 16.1 mph 25.3 mph N/A   Clear
9:15 PM 89.6 °F 93.4 °F 68.0 °F 49% 29.88 in 10.0 mi SSE 17.3 mph 23.0 mph N/A   Clear
9:35 PM 86.0 °F 88.2 °F 66.2 °F 51% 29.89 in 10.0 mi SSE 16.1 mph 24.2 mph N/A   Clear
9:55 PM 86.0 °F 88.2 °F 66.2 °F 51% 29.89 in 10.0 mi SSE 12.7 mph 20.7 mph N/A   Clear
10:15 PM 86.0 °F 89.4 °F 68.0 °F 55% 29.90 in 10.0 mi SSE 15.0 mph 20.7 mph N/A   Clear
10:35 PM 84.2 °F 85.6 °F 64.4 °F 51% 29.91 in 10.0 mi SSE 12.7 mph 19.6 mph N/A   Clear
10:55 PM 82.4 °F 83.9 °F 64.4 °F 54% 29.90 in 10.0 mi SSE 17.3 mph - N/A   Clear
11:15 PM 82.4 °F 83.9 °F 64.4 °F 54% 29.91 in 10.0 mi South 11.5 mph - N/A   Clear
11:35 PM 82.4 °F 83.9 °F 64.4 °F 54% 29.92 in 10.0 mi South 11.5 mph - N/A   Clear
11:55 PM 82.4 °F 83.9 °F 64.4 °F 54% 29.92 in 10.0 mi South 11.5 mph 16.1 mph N/A   Clear